Location: Larrial
(48.2758°N, 4.5331°W)
Time: 22:03:52
(UTC+00:00)

RS-15 - Visible Passes

Search period start: 05 December 2021 00:00
Search period end: 15 December 2021 00:00
Orbit: 1883 x 2161 km, 64.8° (Epoch: 04 December)

Date Brightness Start Highest point End Pass type
(mag) Time Alt. Az. Time Alt. Az. Time Alt. Az.
05 Dec 9.1 02:07:53 33° E 02:07:53 33° E 02:17:06 10° NE visible
05 Dec 7.9 04:15:42 63° SW 04:18:16 84° NW 04:30:33 10° NE visible
05 Dec 8.5 06:23:30 16° W 06:32:40 42° NNW 06:44:09 10° NE visible
06 Dec 9.4 01:33:43 24° E 01:33:43 24° E 01:40:27 10° NE visible
06 Dec 7.9 03:41:30 79° SSE 03:42:12 82° SE 03:54:22 10° NE visible
06 Dec 8.4 05:49:19 26° W 05:55:58 47° NNW 06:07:42 10° NE visible
07 Dec 9.8 00:59:27 16° ENE 00:59:27 16° ENE 01:03:22 10° ENE visible
07 Dec 8.2 03:07:14 66° E 03:07:14 66° E 03:18:12 10° NE visible
07 Dec 8.2 05:15:02 38° W 05:19:24 53° NNW 05:31:21 10° NE visible
08 Dec 10.0 00:25:07 10° ENE 00:25:07 10° ENE 00:25:11 10° ENE visible
08 Dec 8.6 02:32:54 49° ENE 02:32:54 49° ENE 02:41:59 10° NE visible
08 Dec 8.0 04:40:40 54° WNW 04:42:57 61° NW 04:55:04 10° NE visible
08 Dec 8.8 06:48:28 12° WNW 06:58:29 37° N 07:09:39 10° ENE visible
09 Dec 9.0 01:58:29 36° ENE 01:58:29 36° ENE 02:05:42 10° NE visible
09 Dec 7.9 04:06:16 70° NW 04:06:37 70° NW 04:18:51 10° NE visible
09 Dec 8.7 06:14:03 20° WNW 06:21:39 39° NNW 06:32:57 10° NE visible
10 Dec 9.4 01:24:02 25° ENE 01:24:02 25° ENE 01:29:18 10° NE visible
10 Dec 8.0 03:31:48 73° NNE 03:31:48 73° NNE 03:42:41 10° NE visible
10 Dec 8.6 05:39:35 29° WNW 05:44:52 41° NNW 05:56:21 10° NE visible
11 Dec 9.7 00:49:32 18° ENE 00:49:32 18° ENE 00:52:41 10° NE visible
11 Dec 8.3 02:57:18 59° NE 02:57:18 59° NE 03:06:31 10° NE visible
11 Dec 8.4 05:05:05 40° WNW 05:08:11 46° NNW 05:19:53 10° NE visible
11 Dec 8.9 07:13:31 10° WNW 07:24:28 37° N 07:35:39 10° ENE visible
12 Dec 10.0 00:14:59 11° ENE 00:14:59 11° ENE 00:15:41 10° ENE visible
12 Dec 8.7 02:22:45 45° NE 02:22:45 45° NE 02:30:21 10° NE visible
12 Dec 8.2 04:30:31 51° NW 04:31:36 52° NNW 04:43:31 10° NE visible
12 Dec 8.8 06:38:17 14° WNW 06:47:36 36° N 06:58:43 10° ENE visible
13 Dec 9.1 01:48:10 34° NE 01:48:10 34° NE 01:54:08 10° NE visible
13 Dec 8.2 03:55:56 58° NNW 03:55:56 58° NNW 04:07:13 10° NE visible
13 Dec 8.8 06:03:42 21° WNW 06:10:44 37° N 06:21:53 10° ENE visible
14 Dec 9.5 01:13:33 25° NE 01:13:33 25° NE 01:17:52 10° NE visible
14 Dec 8.3 03:21:19 58° N 03:21:19 58° N 03:31:01 10° NE visible
14 Dec 8.7 05:29:05 29° NW 05:33:53 38° NNW 05:45:09 10° NE visible
